TimeEST,TemperatureF,Dew PointF,Humidity,Sea Level PressureIn,VisibilityMPH,Wind Direction,Wind SpeedMPH,Gust SpeedMPH,PrecipitationIn,Events,Conditions,WindDirDegrees,DateUTC
12:16 AM,21.2,19.4,93,29.99,8.0,North,8.1,-,N/A,,Overcast,360,2013-12-23 05:16:00
12:53 AM,21.9,19.0,89,30.04,6.0,North,8.1,-,N/A,,Overcast,350,2013-12-23 05:53:00
1:53 AM,21.9,19.0,89,30.06,5.0,NNW,8.1,-,N/A,,Overcast,340,2013-12-23 06:53:00
2:18 AM,21.2,19.4,93,30.03,5.0,North,6.9,-,N/A,,Overcast,350,2013-12-23 07:18:00
2:53 AM,21.9,19.9,92,30.08,4.0,NNW,4.6,-,N/A,,Overcast,340,2013-12-23 07:53:00
3:53 AM,21.9,19.0,89,30.09,4.0,NNW,4.6,-,0.00,Snow,Light Snow,340,2013-12-23 08:53:00
4:24 AM,21.2,19.4,93,30.06,7.0,NNW,5.8,-,0.00,,Overcast,330,2013-12-23 09:24:00
4:53 AM,21.9,19.9,92,30.10,7.0,NW,4.6,-,0.00,,Overcast,320,2013-12-23 09:53:00
5:53 AM,21.9,19.0,89,30.12,6.0,NNW,3.5,-,0.00,Snow,Light Snow,340,2013-12-23 10:53:00
6:48 AM,21.2,19.4,93,30.10,7.0,NW,3.5,-,0.00,Snow,Light Snow,320,2013-12-23 11:48:00
6:53 AM,21.0,18.0,88,30.13,7.0,NW,4.6,-,0.00,Snow,Light Snow,320,2013-12-23 11:53:00
7:53 AM,21.9,19.0,89,30.17,8.0,NNW,4.6,-,0.01,Snow,Light Snow,330,2013-12-23 12:53:00
8:50 AM,21.2,17.6,86,30.17,9.0,West,4.6,-,0.00,,Overcast,270,2013-12-23 13:50:00
8:53 AM,21.0,18.0,88,30.20,9.0,West,4.6,-,0.00,,Overcast,280,2013-12-23 13:53:00
9:53 AM,21.0,17.1,85,30.23,10.0,NW,5.8,-,N/A,,Overcast,320,2013-12-23 14:53:00
10:26 AM,21.2,17.6,86,30.20,10.0,WNW,3.5,-,N/A,,Overcast,290,2013-12-23 15:26:00
10:53 AM,21.9,17.1,82,30.24,10.0,Calm,Calm,-,N/A,,Overcast,0,2013-12-23 15:53:00
11:53 AM,21.9,16.0,78,30.26,10.0,West,10.4,-,N/A,,Overcast,270,2013-12-23 16:53:00
12:20 PM,21.2,15.8,80,30.21,10.0,West,6.9,-,N/A,,Partly Cloudy,280,2013-12-23 17:20:00
12:53 PM,21.9,15.1,75,30.25,10.0,West,5.8,-,N/A,,Scattered Clouds,270,2013-12-23 17:53:00
1:53 PM,23.0,15.1,72,30.25,10.0,WSW,6.9,-,N/A,,Mostly Cloudy,240,2013-12-23 18:53:00
2:02 PM,23.0,15.8,74,30.21,10.0,WSW,6.9,-,N/A,,Scattered Clouds,240,2013-12-23 19:02:00
2:46 PM,21.2,15.8,80,30.22,10.0,SW,8.1,-,N/A,,Mostly Cloudy,230,2013-12-23 19:46:00
2:53 PM,23.0,16.0,74,30.26,10.0,SW,9.2,-,N/A,,Mostly Cloudy,220,2013-12-23 19:53:00
3:40 PM,19.4,14.0,80,30.23,10.0,WSW,6.9,-,N/A,,Scattered Clouds,250,2013-12-23 20:40:00
3:53 PM,21.0,14.0,74,30.27,10.0,WSW,5.8,-,N/A,,Partly Cloudy,240,2013-12-23 20:53:00
4:53 PM,21.0,15.1,78,30.29,10.0,SW,5.8,-,N/A,,Overcast,220,2013-12-23 21:53:00
5:53 PM,21.0,16.0,81,30.30,10.0,Calm,Calm,-,N/A,,Overcast,0,2013-12-23 22:53:00
6:53 PM,21.0,16.0,81,30.30,10.0,North,4.6,-,N/A,,Overcast,350,2013-12-23 23:53:00
7:53 PM,19.9,14.0,78,30.32,8.0,NNE,8.1,-,0.00,Snow,Light Snow,30,2013-12-24 00:53:00
8:51 PM,19.4,12.2,74,30.29,2.5,NNE,6.9,-,0.00,Snow,Light Snow,20,2013-12-24 01:51:00
8:53 PM,19.0,12.9,77,30.33,2.5,NNE,5.8,-,0.00,Snow,Light Snow,20,2013-12-24 01:53:00
9:53 PM,18.0,12.9,81,30.32,2.5,NNE,5.8,-,0.00,Snow,Light Snow,30,2013-12-24 02:53:00
10:01 PM,17.6,12.2,79,30.29,2.5,NNE,5.8,-,0.00,,Overcast,30,2013-12-24 03:01:00
10:36 PM,17.6,12.2,79,30.29,10.0,NNE,9.2,-,0.00,,Overcast,20,2013-12-24 03:36:00
10:53 PM,16.0,10.9,81,30.33,10.0,NNE,5.8,-,0.00,,Overcast,20,2013-12-24 03:53:00
11:41 PM,14.0,8.6,79,30.29,10.0,NNE,5.8,-,N/A,,Overcast,20,2013-12-24 04:41:00
11:53 PM,14.0,8.1,77,30.33,10.0,North,6.9,-,N/A,,Overcast,360,2013-12-24 04:53:00